Погода в Беляковском

Россия / Свердловская область     56°59′22″N   64°11′32″E
темп.,
°C
ветер,
м/с
пор.,
м/с
влажн.,
%
обл.,
%
осадки,
мм/ч
давл.,
гПа
погр.,
м
20 января, чт
чт2023:00−6юз31092100 0.0 1021253
02:00−6юз3992100 0.0 1022238
05:00−7юз31091100 0.0 1022236
08:00−8юз389261 0.0 1023161
11:00−8ююз31089100 0.0 1024241
14:00−5ю3989100 0.0 1023305
17:00−7ю3991100 0.0 1023273
20:00−8ююз31092100 0.0 1023306
21 января, пт
пт2123:00−9ююз3989100 0.0 1023278
02:00−12ююз3990100 0.0 1023238
05:00−15ююз37937 0.0 1024152
08:00−18ююз26967 0.0 1024100
11:00−14ююз27925 0.0 1025145
14:00−10ююз35875 0.0 1024237
17:00−14ю25966 0.0 102578
20:00−16ююз26965 0.0 102693
22 января, сб
сб2223:00−17ююз25967 0.0 102769
02:00−18ююз239849 0.0 102743
05:00−18ююз23988 0.0 102850
08:00−20ююз11997 0.0 102916
11:00−14юз23915 0.0 103094
14:00−9ююз23865 0.0 1030213
17:00−15ю119798 0.0 10319
20:00−16ю1197100 0.0 103216
23 января, вс
вс2323:00−16ю1195100 0.0 103329
02:00−16ю119599 0.0 103310
05:00−21юз119737 0.0 10349
08:00−22юз11976 0.0 10359
11:00−15юз11829 0.0 103656
14:00−9юз11745 0.0 1036141
17:00−14юз11945 0.0 10379
20:00−18зюз119835 0.0 103810
24 января, пн
пн2423:00−19зюз119711 0.0 103910
02:00−19з11999 0.0 10399
05:00−19з119981 0.0 104014
08:00−18з1199100 0.0 104011
11:00−12з129189 0.0 104066
14:00−7з2385100 0.0 1039163
17:00−9юз1196100 0.0 103910
20:00−9юз1197100 0.0 103816